AirNav   Everest Fuels
 
 1035 users online  

6K4 Fairview Municipal Airport
Fairview, Oklahoma, USA

GOING TO FAIRVIEW?


FAA INFORMATION EFFECTIVE 25 FEBRUARY 2021

Location

FAA Identifier: 6K4
Lat/Long: 36-17-28.3000N 098-28-32.9000W
36-17.471667N 098-28.548333W
36.2911944,-98.4758056
(estimated)
Elevation: 1273.8 ft. / 388.3 m (surveyed)
Variation: 04E (2020)
From city: 1 mile N of FAIRVIEW, OK
Time zone: UTC -6 (UTC -5 during Daylight Saving Time)
Zip code: 73737

Airport Operations

Airport use: Open to the public
Activation date: 03/1948
Control tower: no
ARTCC: KANSAS CITY CENTER
FSS: MC ALESTER FLIGHT SERVICE STATION
NOTAMs facility: MLC (NOTAM-D service available)
Attendance: MON-SAT DAYLIGHT HOURS
Wind indicator: lighted
Segmented circle: yes
Lights: SS-SR
Beacon: white-green (lighted land airport)
Operates sunset to sunrise.

Airport Communications

CTAF/UNICOM: 122.8
VANCE APPROACH: 126.75 [1300-0200Z++WKD, 1900-2300Z++ SUN ; CLSD SAT & FEDERAL HOL. GND CTL AND CLNC DEL SVC AVBL 15 MIN PRIOR TO AFLD OPENING. OTHER TIMES BY NOTAM.]
VANCE DEPARTURE: 126.75 [1300-0200Z++WKD, 1900-2300Z++ SUN ; CLSD SAT & FEDERAL HOL. GND CTL AND CLNC DEL SVC AVBL 15 MIN PRIOR TO AFLD OPENING. OTHER TIMES BY NOTAM.]
  • APCH/DEP CTL SVC PRVDD BY KANSAS CITY ARTCC (ZKC) ON FREQS 127.8/319.1 (PONCA CITY RCAG) WHEN VANCE APCH CTL (END) CLSD.

Nearby radio navigation aids

VOR radial/distance  VOR name  Freq  Var
ENDr258/27.1VANCE VORTAC115.4005E
ODGr254/33.6WOODRING VOR/DME109.0008E
IFIr313/37.1KINGFISHER VORTAC114.7009E

Airport Services

Fuel available: 100LL JET-A
Parking: tiedowns
Airframe service: MINOR
Powerplant service: MINOR
Bottled oxygen: NONE
Bulk oxygen: NONE

Runway Information

Runway 17/35

Dimensions: 4400 x 75 ft. / 1341 x 23 m
Surface: asphalt/concrete, in good condition
Weight bearing capacity: 
Single wheel: 30.0
Runway edge lights: medium intensity
RUNWAY 17  RUNWAY 35
Latitude: 36-17.834607N36-17.109563N
Longitude: 098-28.541372W098-28.556932W
Elevation: 1264.7 ft.1272.5 ft.
Traffic pattern: leftleft
Runway heading: 176 magnetic, 180 true356 magnetic, 360 true
Markings: nonprecision, in good conditionnonprecision, in good condition
Touchdown point: yes, no lightsyes, no lights
Obstructions: none52 ft. trees, 980 ft. from runway, 240 ft. left of centerline, 15:1 slope to clear

Airport Ownership and Management from official FAA records

Ownership: Publicly-owned
Owner: CITY OF FAIRVIEW
CITY HALL 203 E. CENTRAL
FAIRVIEW, OK 73737
Phone 580-227-4416
Manager: JUNIOR REGIER
224 E. OKLAHOMA AVENUE
FAIRVIEW, OK 73737
Phone 580-227-3788
OR 580-227-2760.

Airport Operational Statistics

Aircraft based on the field: 14
Single engine airplanes: 13
Multi engine airplanes: 1
    
Aircraft operations: avg 103/week *
56% local general aviation
44% transient general aviation
* for 12-month period ending 24 August 2018

Additional Remarks

FOR CD CTC VANCE APCH AT 580-213-6765. WHEN VANCE APCH IS CLSD, CTC KANSAS CITY ARTCC AT 913-254-8508.

Instrument Procedures

NOTE: All procedures below are presented as PDF files. If you need a reader for these files, you should download the free Adobe Reader.

NOT FOR NAVIGATION. Please procure official charts for flight.
FAA instrument procedures published for use from 25 February 2021 at 0901Z to 25 March 2021 at 0900Z.

 
IAPs - Instrument Approach Procedures
RNAV (GPS) RWY 17   download (212KB)
RNAV (GPS) RWY 35   download (212KB)
NOTE: Special Take-Off Minimums/Departure Procedures apply   download (453KB)

Other nearby airports with instrument procedures:

KJWG - Watonga Regional Airport (26 nm S)
KEND - Vance Air Force Base (27 nm E)
KAVK - Alva Regional Airport (30 nm N)
KWDG - Enid Woodring Regional Airport (34 nm E)
1O4 - Thomas Municipal Airport (36 nm S)
 
Loc | Ops | Rwys | IFR | FBO | Links
Com | Nav | Svcs | Stats | Notes

AirBoss

 
Area around 6K4 (Fairview Municipal Airport)
 
Road maps at: MapQuest Bing Google
 
Aerial photo
WARNING: Photo may not be current or correct
Aerial photo of 6K4 (Fairview Municipal Airport)
Photo by Jr. Regier, Regier Flying Service, LLC
Photo taken 31-Oct-2014
looking north.

Do you have a better or more recent aerial photo of Fairview Municipal Airport that you would like to share? If so, please send us your photo.

 
Sectional chart

 
Airport distance calculator
Flying to Fairview Municipal Airport? Find the distance to fly.

From to 6K4

Sunrise and sunset
Times for 04-Mar-2021
 Local
(UTC-6)
 Zulu
(UTC)
Morning civil twilight06:3512:35
Sunrise07:0113:01
Sunset18:3000:30
Evening civil twilight18:5600:56

Current date and time
Zulu (UTC)  05-Mar-2021 01:19:08
Local (UTC-6)  04-Mar-2021 19:19:08
 
METAR
KJWG 
26nm S 
050055Z AUTO 15011KT 10SM CLR 18/06 A2992 RMK AO2 T01810059
KEND 
27nm E 
050056Z AUTO 11012KT 10SM FEW080 SCT100 BKN120 BKN140 18/06 A2989 RMK AO2 SLP122 T01750061
KAVK 
30nm N 
050055Z AUTO 10006KT 10SM FEW080 SCT100 BKN120 16/06 A2991 RMK AO2 PWINO TSNO
KWDG 
35nm E 
050045Z 12012KT 10SM OVC100 18/06 A2991
KOJA 
46nm S 
050055Z AUTO 17006KT 10SM SCT120 18/05 A2989 RMK AO2 T01800053
TAF
KEND 
27nm E 
041800Z 0418/0524 13016G22KT 9999 SCT150 BKN180 QNH3000INS BECMG 0419/0420 14011G24KT 9999 BKN140 QNH2991INS BECMG 0423/0424 12013G23KT 9000 -SHRA SCT040 BKN100 QNH2987INS TEMPO 0500/0507 VRB15G25KT 4800 -TSRA OVC020CB BECMG 0508/0509 10010KT 8000 -SHRA BKN025 QNH2997INS BECMG 0511/0512 05011KT 9000 VCSH BKN020 620607 QNH2999INS TEMPO 0512/0518 8000 -SHRA BKN015 BECMG 0518/0519 04012G22KT 9999 NSW SCT025 BKN040 QNH3018INS TX21/0421Z TN06/0512Z
NOTAMs
Click for the latest NOTAMs
NOTAMs are issued by the DoD/FAA and will open in a separate window not controlled by AirNav.

 

 
 

FBO, Fuel Providers, and Aircraft Ground Support

  
 Business Name 
 
 Contact 
 
 Services / Description 
 
Fuel Prices
 
Comments
  
Regier Flying Service 580-227-3788
no information available

If you are affiliated with Regier Flying Service and would like to show here your services, contact info, web link, logo, and more, click here
100LL Jet A
FS $4.50 $3.65 
 Updated 04-Nov-2020
 
   write
FS=Full service
Update Fuel Prices
 

Would you like to see your business listed on this page?

 If your business provides an interesting product or service to pilots, flight crews, aircraft, or users of the Fairview Municipal Airport, you should consider listing it here.  To start the listing process, click on the button below
 
Add a business
 

Other Pages about Fairview Municipal Airport

Mid Air Collision Avoidance for KEND (Vance Air Force Base)
 
Update a link
 
Copyright © AirNav, LLC. All rights reserved. Privacy Policy  Contact